Location: ?????????
(41.2393°N, 22.9479°E)
Time: 21:01:19
(UTC+00:00)

CORIOLIS - Pass Details

Date: 17 November 2025
Orbit: 815 x 836 km, 98.7° (Epoch: 11 December)

Event Time Altitude Azimuth Distance (km) Brightness Sun altitude
Rises 15:48:20 0° 164° (SSE) 3,349 7.4 -8.0°
Reaches altitude 10° 15:50:40 10° 164° (SSE) 2,417 6.6 -8.4°
Maximum altitude 15:56:02 89° 75° (ENE) 827 4.2 -9.4°
Drops below altitude 10° 16:01:25 10° 347° (NNW) 2,421 6.6 -10.3°
Sets 16:03:45 0° 347° (NNW) 3,355 7.3 -10.8°
